Home   Weather   Kohtla-Järve   Past weeks

Flag for Estonia Past Weather in Kohtla-Järve, Estonia — Yesterday and Last 2 Weeks

Now
32 °F

Light snow. Overcast.


Feels Like: 32 °F
Forecast: 34 / 41 °F
Wind: 2 mph from Southwest

Location: Johvi

Current Time: Apr 24, 2017 at 3:07:43 am

Latest Report: Apr 24, 2017 at 2:00 am


Visibility: 2 mi

Pressure: 29.73 "Hg

Humidity: 98%

Dew Point: 32 °F

Location of Kohtla-JärveLocation

Past Weather in Kohtla-Järve — Graph

°F

Kohtla-Järve Temperature Yesterday

Maximum temperature yesterday: 39 °F (at 3:00 pm)
Minimum temperature yesterday: 31 °F (at 3:00 am)
Average temperature yesterday: 35 °F

High & Low Weather Summary for the Past Weeks

 TemperatureHumidityPressure
High58 °F (Apr 10, 5:00 pm)100% (Apr 13, 9:00 am)30.55 "Hg (Apr 13, 9:00 am)
Low12 °F (Apr 16, 2:00 am)33% (Apr 20, 1:00 pm)29.18 "Hg (Apr 22, 6:00 am)
Average34 °F74%29.78 "Hg
* Reported Apr 9 1:00 am — Apr 24 1:00 am, Kohtla-Järve, Weather by CustomWeather, © 2017

Note: Actual official high and low records may vary slightly from our data, if they occured in-between our weather recording intervals... More about our weather records

Advertising

Kohtla-Järve Weather History for the Previous 24 Hours

Scroll right to see more
 ConditionsComfort  
Time TempWeatherWind HumidityBarometerVisibility
1:00 am
Mon, Apr 24
32 °FLight snow. Overcast.1 mph98%29.73 "Hg1 mi
12:00 am33 °FLight snow. Overcast.2 mph98%29.72 "Hg2 mi
11:00 pm
Sun, Apr 23
32 °FLight snow. Overcast.1 mph98%29.72 "Hg1 mi
10:00 pm32 °FLight snow. Low clouds.1 mph98%29.71 "Hg1 mi
9:00 pm33 °FLight snow. Overcast.2 mph97%29.70 "Hg1 mi
8:00 pm33 °FLight rain. Low clouds.3 mph95%29.69 "Hg4 mi
7:00 pm35 °FRain showers. Low clouds.6 mph91%29.67 "Hg6 mi
6:00 pm35 °FLow clouds.5 mph91%29.66 "Hg17 mi
5:00 pm35 °FRain showers. Low clouds.7 mph92%29.65 "Hg7 mi
4:00 pm37 °FLow clouds.6 mph84%29.62 "Hg10 mi
3:00 pm39 °FOvercast.3 mph78%29.60 "Hg25 mi
2:00 pm39 °FDrizzle. Overcast.5 mph81%29.59 "Hg22 mi
1:00 pm38 °FLow clouds.5 mph83%29.58 "Hg31 mi
12:00 pm37 °FLow clouds.5 mph87%29.56 "Hg28 mi
11:00 am37 °FLow clouds.3 mph88%29.54 "Hg18 mi
10:00 am36 °FLow clouds.5 mph90%29.50 "Hg28 mi
9:00 am35 °FLow clouds.5 mph91%29.47 "Hg25 mi
8:00 am35 °FLow clouds.5 mph94%29.47 "Hg25 mi
7:00 am34 °FLow clouds.5 mph94%29.44 "Hg31 mi
6:00 am34 °FLow clouds.5 mph95%29.41 "Hg16 mi
5:00 am33 °FPassing clouds.3 mph97%29.41 "Hg31 mi
4:00 am31 °FFog.3 mph99%29.41 "Hg4 mi
3:00 am31 °FFog.2 mph99%29.38 "Hg6 mi
Weather by CustomWeather, © 2017

See weather overviewHow to use our weather pages